sat.trackr.live / text

‹ back to catalog

ION SCV-023

NORAD 69876 · 2026-156H

PAYLOAD ACTIVE UNKNOWN

§ Identity

Operator
Country
IT
Launch date
2026-07-07
Launch site
AFWTR
Launch vehicle
Mass (kg)
RCS (m²)

External: N2YO · Heavens-Above · Gunter

§ Orbital elements

Epoch: 2026-09-20T04:37:21.338112Z

Period
96.52 min
Inclination
97.5920°
Eccentricity
0.0005368
Mean motion
14.91867893 rev/d
Perigee alt
588.4 km
Apogee alt
595.9 km
Semi-major
6,970.2 km
B*
5.1374e-5
RAAN
161.4263°
Arg perigee
264.5112°
Mean anomaly
95.5495°
Rev number
1,116

§ Raw data

ION SCV-0231 69876U 26156H   26263.19260808  .00000465  00000+0  51374-4 0  99972 69876  97.5920 161.4263 0005368 264.5112  95.5495 14.91867893 11168

JSON: /api/v1/satellites/69876 · /tle

For live sub-satellite position, see the globe view (requires WebGL).

§ Visibility from observer

Set your observer location to see the next 7 days of passes ≥ 10°. The values pass through the URL so the page stays shareable.

No JS? Fill the form by hand. The geolocation button needs JavaScript.